Probability
81 97 100 100 100 100 100 100 100 100 100 97 97 97 97 97 97 97 100 100 100 100 100 100 100 100 97 97 97 97 97 97 97 97 94 97 97 97 97 94 81 65 97
84 100 100 100 100 100 100 100 100 100 100 100 100 100 97 94 97 97 97 100 100 100 100 100 100 100 97 97 97 97 97 97 97 94 94 94 94 97 94 90 77 74 97
87 100 100 100 100 100 100 100 100 100 100 100 100 100 97 97 97 100 100 100 100 100 100 100 97 97 94 97 94 94 94 97 97 97 90 58 87 94 90 90 87 90 87
94 97 100 100 100 100 100 100 100 100 100 100 100 100 97 97 97 100 100 97 97 100 97 97 90 90 94 97 97 90 94 84 90 68 6 45 65 90 97 97 90 87 87
94 90 100 100 100 100 100 100 100 100 100 100 100 100 100 100 97 94 100 97 100 97 90 84 84 87 84 84 94 94 87 90 87 39 16 26 58 94 97 90 90 90 90
87 94 100 100 100 100 100 100 100 100 100 100 100 100 100 97 94 94 90 97 97 97 94 87 81 77 84 84 90 97 90 94 48 10 16 39 68 97 94 94 90 90 90
84 100 100 100 100 100 100 100 100 100 100 100 100 100 97 97 94 94 94 100 100 97 94 94 77 84 87 81 87 90 94 87 6 16 16 55 81 97 94 97 94 90 81
94 100 100 100 100 100 100 100 100 100 100 100 100 100 100 100 97 97 100 97 97 94 97 90 87 84 84 84 94 97 90 77 23 13 26 55 90 97 94 94 90 84 84
97 100 100 100 100 100 100 100 100 100 100 100 100 100 100 100 100 100 100 100 97 97 94 94 84 87 84 81 87 87 81 74 6 10 26 65 94 94 90 87 84 87 90
97 100 100 100 100 100 100 100 100 100 100 100 100 100 100 100 100 100 100 97 94 94 87 71 68 71 77 71 87 90 81 61 10 13 32 77 94 90 87 87 87 84 87
97 97 97 97 97 97 97 97 97 97 100 100 100 100 97 84 81 94 90 97 94 90 74 74 68 71 71 71 87 97 48 3 3 16 42 87 94 94 90 94 90 87 84
94 94 97 97 97 97 97 97 97 97 94 94 94 94 61 42 45 74 94 97 84 74 71 74 77 74 42 3 29 42 3 10 3 19 52 90 94 94 87 90 87 84 81
90 94 94 97 97 87 90 94 94 87 84 84 84 74 32 23 35 32 52 71 61 61 35 48 42 16 10 0 3 0 3 3 3 19 81 94 97 94 94 87 84 81 87
94 90 94 94 87 77 81 87 74 77 74 65 68 55 29 26 26 26 32 32 19 6 6 10 3 6 6 6 3 0 3 3 3 23 65 94 97 94 77 81 81 81 77
97 94 90 90 84 74 68 74 65 68 68 55 58 42 39 26 13 16 19 13 13 6 6 0 3 3 0 0 6 3 3 3 10 26 52 90 90 90 81 81 74 74 68
94 90 87 84 77 71 71 65 65 55 55 55 55 39 32 23 16 13 13 13 13 6 3 6 3 3 0 3 3 6 6 3 6 16 29 71 87 90 87 81 81 71 61
84 90 87 77 77 65 58 55 55 45 48 45 45 35 29 23 16 16 13 10 10 6 3 0 3 3 0 0 0 3 3 6 6 13 23 39 52 84 90 84 84 81 71
77 84 81 90 74 58 39 42 45 42 45 45 39 35 23 26 19 16 10 10 6 6 3 3 0 0 0 0 0 0 3 6 6 10 13 23 26 45 61 84 84 84 71
77 71 68 71 61 45 35 32 39 45 45 32 26 26 23 26 23 16 3 3 6 3 3 3 0 0 0 0 0 0 0 3 6 13 10 10 6 10 19 55 84 87 81
71 65 65 61 55 42 35 32 39 39 29 23 29 26 19 29 26 16 6 3 3 0 0 0 0 0 0 0 0 0 0 0 0 0 3 3 0 0 3 16 32 58 77
65 65 52 65 42 35 39 39 45 39 29 23 26 26 26 26 23 13 10 0 0 0 0 0 0 0 0 0 0 0 0 0 0 0 3 3 3 3 0 0 3 3 16
68 61 58 55 48 35 29 32 35 32 23 16 23 19 26 19 19 10 3 0 0 0 0 0 0 0 0 0 0 0 0 0 0 0 0 0 3 3 0 0 0 3 3
55 55 55 55 55 39 32 29 23 13 16 16 19 19 19 16 16 0 0 0 0 0 0 0 0 0 0 0 0 0 0 0 0 0 0 0 0 0 0 0 0 0 0
55 52 52 58 52 39 35 26 19 23 16 19 19 19 16 13 10 3 0 0 0 0 0 0 0 0 0 0 0 0 0 0 0 0 0 0 0 0 0 0 0 0 0
52 55 55 52 45 42 29 32 19 13 13 6 10 13 6 10 10 6 3 0 0 0 0 0 0 0 0 0 0 0 0 0 0 0 0 0 0 0 0 0 0 0 0
48 48 45 42 32 32 26 23 16 13 13 6 10 10 3 3 6 6 3 0 0 0 0 0 0 0 0 0 0 0 0 0 0 0 0 0 0 0 0 0 0 0 0
Height
5887 5887 5887 5888 5889 5890 5891 5892 5892 5893 5894 5894 5894 5894 5895 5895 5894 5894 5894 5894 5894 5894 5893 5893 5893 5893 5892 5892 5892 5892 5891 5891 5891 5891 5891 5891 5891 5891 5890 5890 5890 5890 5890
5888 5887 5888 5888 5889 5890 5891 5892 5893 5894 5894 5895 5895 5895 5896 5896 5896 5895 5895 5895 5895 5895 5894 5894 5894 5894 5893 5893 5893 5892 5892 5892 5892 5892 5892 5892 5892 5892 5892 5892 5892 5892 5891
5888 5888 5888 5888 5889 5890 5891 5892 5893 5894 5895 5896 5896 5896 5897 5897 5897 5896 5896 5896 5896 5895 5895 5895 5895 5895 5894 5894 5894 5893 5893 5893 5893 5893 5893 5893 5893 5893 5893 5893 5893 5893 5893
5887 5888 5888 5889 5889 5890 5891 5893 5894 5895 5895 5896 5897 5897 5897 5898 5898 5897 5897 5897 5897 5896 5896 5896 5896 5895 5895 5895 5895 5894 5894 5894 5894 5894 5894 5894 5895 5895 5895 5895 5895 5895 5894
5887 5887 5888 5888 5889 5890 5891 5893 5894 5895 5895 5896 5897 5898 5898 5898 5898 5898 5898 5898 5898 5897 5897 5897 5896 5896 5896 5896 5895 5895 5895 5895 5895 5895 5895 5896 5896 5896 5896 5896 5896 5896 5896
5886 5886 5887 5888 5889 5890 5891 5892 5894 5895 5895 5896 5897 5898 5898 5899 5899 5899 5899 5899 5898 5898 5898 5897 5897 5897 5897 5896 5896 5896 5896 5896 5896 5896 5896 5897 5897 5897 5897 5897 5897 5897 5897
5886 5886 5886 5887 5889 5890 5891 5892 5893 5894 5895 5896 5897 5898 5899 5899 5899 5899 5899 5899 5899 5899 5898 5898 5898 5897 5897 5897 5897 5897 5897 5897 5897 5897 5897 5897 5898 5898 5898 5898 5898 5898 5898
5885 5885 5886 5887 5888 5889 5890 5892 5893 5894 5895 5896 5897 5898 5899 5899 5899 5900 5900 5899 5899 5899 5898 5898 5898 5898 5898 5898 5898 5897 5897 5897 5897 5898 5898 5898 5898 5899 5899 5899 5899 5899 5899
5884 5885 5885 5886 5887 5888 5889 5891 5892 5893 5894 5895 5896 5898 5898 5899 5899 5899 5900 5899 5899 5899 5899 5898 5898 5898 5898 5898 5898 5898 5898 5898 5898 5898 5898 5898 5899 5899 5899 5899 5899 5899 5899
5884 5884 5885 5885 5886 5887 5888 5890 5891 5892 5893 5894 5896 5897 5898 5898 5899 5899 5899 5899 5899 5899 5899 5898 5898 5898 5898 5898 5898 5898 5898 5898 5898 5898 5898 5899 5899 5899 5900 5900 5900 5900 5900
5883 5883 5883 5884 5885 5886 5887 5888 5890 5891 5892 5893 5895 5896 5897 5898 5898 5899 5899 5899 5898 5898 5898 5898 5898 5898 5898 5898 5898 5898 5898 5898 5898 5899 5899 5899 5899 5900 5900 5900 5900 5900 5900
5882 5882 5882 5882 5883 5884 5885 5886 5888 5889 5891 5892 5893 5895 5896 5897 5897 5898 5898 5898 5898 5898 5898 5898 5898 5898 5898 5898 5898 5898 5898 5899 5898 5899 5899 5899 5899 5900 5900 5900 5900 5900 5900
5880 5880 5881 5881 5882 5883 5884 5885 5886 5887 5889 5891 5892 5893 5895 5896 5897 5897 5897 5897 5897 5897 5898 5898 5898 5898 5898 5898 5898 5898 5898 5899 5899 5899 5899 5899 5899 5899 5899 5899 5899 5900 5900
5879 5878 5879 5879 5880 5881 5881 5882 5884 5885 5887 5889 5890 5891 5893 5894 5895 5896 5897 5897 5897 5897 5897 5897 5898 5898 5898 5898 5898 5898 5898 5898 5898 5898 5899 5899 5899 5899 5899 5899 5899 5899 5899
5877 5876 5876 5877 5878 5878 5879 5880 5882 5883 5885 5886 5888 5889 5891 5893 5894 5895 5896 5896 5896 5896 5897 5897 5897 5897 5897 5897 5898 5898 5898 5898 5898 5899 5899 5899 5898 5898 5898 5898 5898 5898 5898
5874 5874 5874 5875 5875 5876 5877 5878 5879 5881 5882 5884 5886 5887 5889 5891 5892 5894 5894 5895 5895 5896 5896 5896 5897 5897 5897 5897 5898 5898 5898 5898 5898 5899 5899 5898 5898 5898 5898 5898 5898 5898 5898
5871 5871 5871 5872 5873 5873 5874 5875 5876 5878 5880 5881 5883 5885 5887 5889 5890 5892 5893 5894 5894 5895 5895 5895 5896 5896 5897 5897 5898 5898 5898 5898 5898 5898 5898 5898 5898 5898 5898 5898 5897 5897 5897
5868 5868 5868 5869 5869 5870 5871 5872 5873 5875 5877 5879 5881 5883 5885 5887 5889 5890 5891 5892 5893 5894 5894 5895 5895 5896 5896 5897 5897 5898 5898 5898 5898 5898 5898 5898 5898 5898 5898 5898 5897 5897 5897
5865 5864 5865 5865 5866 5866 5868 5869 5871 5873 5874 5876 5878 5880 5882 5884 5886 5888 5890 5891 5892 5892 5893 5894 5895 5895 5896 5896 5897 5897 5897 5897 5897 5898 5898 5898 5898 5898 5898 5898 5897 5897 5897
5860 5860 5861 5862 5862 5862 5864 5865 5867 5869 5872 5874 5875 5877 5879 5882 5884 5886 5888 5889 5890 5891 5892 5892 5893 5894 5894 5895 5896 5896 5897 5897 5897 5897 5897 5897 5897 5897 5897 5897 5897 5897 5896
5857 5857 5857 5858 5858 5859 5860 5862 5864 5866 5868 5870 5872 5874 5876 5879 5881 5883 5885 5887 5888 5889 5890 5891 5891 5892 5893 5894 5895 5895 5896 5896 5896 5896 5896 5897 5897 5897 5897 5897 5897 5897 5896
5853 5852 5852 5853 5854 5855 5856 5858 5860 5862 5864 5866 5869 5871 5873 5876 5879 5881 5883 5884 5886 5887 5888 5889 5890 5891 5892 5893 5894 5894 5895 5896 5895 5896 5896 5896 5896 5896 5896 5896 5896 5896 5896
5849 5849 5848 5848 5850 5851 5852 5854 5857 5859 5861 5863 5866 5868 5870 5873 5876 5878 5880 5882 5883 5885 5886 5887 5888 5890 5891 5892 5892 5893 5894 5894 5894 5895 5895 5895 5895 5895 5895 5895 5895 5895 5895
5845 5845 5844 5845 5845 5846 5848 5850 5853 5856 5858 5860 5862 5864 5867 5869 5872 5875 5876 5879 5881 5882 5883 5885 5886 5887 5889 5890 5890 5891 5892 5893 5893 5894 5894 5894 5894 5895 5895 5894 5894 5894 5894
5842 5841 5840 5840 5841 5842 5844 5846 5848 5851 5854 5856 5858 5861 5863 5866 5869 5871 5874 5875 5877 5879 5881 5882 5883 5885 5886 5887 5888 5889 5890 5891 5891 5892 5893 5893 5893 5893 5893 5893 5893 5893 5893
5837 5837 5836 5836 5836 5837 5839 5841 5844 5847 5849 5852 5854 5857 5860 5862 5865 5868 5870 5872 5874 5876 5877 5879 5880 5882 5883 5885 5886 5887 5888 5888 5889 5890 5890 5891 5891 5892 5892 5892 5892 5891 5891
Wind_Speed
0 2 3 4 4 5 4 3 2 2 1 1 1 1 2 2 3 3 4 4 4 5 5 5 6 6 6 6 6 6 7 7 7 8 8 8 8 9 9 9 9 9 9
1 1 3 4 4 4 4 3 2 2 1 0 0 0 1 1 2 3 3 3 4 4 4 5 5 5 5 5 6 6 7 7 7 7 8 8 8 8 8 9 9 9 9
0 1 3 4 4 4 4 4 3 2 1 1 1 1 1 0 1 2 2 3 3 3 4 4 4 4 5 5 6 6 6 7 7 7 7 8 8 8 8 8 8 9 9
1 2 3 4 4 5 5 5 4 3 2 1 1 1 1 1 1 1 1 2 2 2 3 3 3 4 4 4 5 5 5 6 6 6 6 7 7 7 7 7 7 7 8
2 3 4 5 5 5 5 5 5 4 3 2 2 2 2 2 2 1 1 1 1 1 2 2 2 3 3 4 4 5 5 5 5 6 6 6 6 6 6 6 6 6 7
1 3 4 6 7 6 6 6 5 4 4 3 3 2 3 3 2 2 1 1 0 1 1 1 1 2 2 3 3 4 4 4 4 5 5 5 5 5 5 5 6 6 6
1 2 5 7 7 7 7 6 6 5 5 5 4 3 3 3 3 3 2 2 2 1 1 1 1 1 1 2 3 3 4 4 4 4 4 5 5 5 5 5 5 5 5
2 2 4 7 7 8 7 7 7 6 6 6 5 4 4 4 4 3 3 3 2 2 1 1 1 1 1 1 2 3 3 3 3 4 4 4 4 4 4 4 4 4 4
4 3 4 6 8 8 8 8 8 7 7 6 6 5 5 5 4 4 4 3 3 2 2 1 1 0 1 1 1 2 2 2 3 2 3 4 4 3 4 4 4 3 3
4 3 4 6 8 9 9 9 8 8 8 8 7 6 6 6 5 5 4 4 3 3 2 2 1 1 1 1 1 1 2 2 2 2 3 3 3 2 3 2 2 2 2
5 4 4 6 7 9 10 11 10 9 8 8 8 7 7 7 6 5 5 4 3 3 2 2 2 1 2 2 2 1 2 2 1 2 2 2 2 2 2 2 2 1 1
5 4 4 6 7 8 9 11 12 11 10 9 9 8 8 7 6 6 5 4 4 3 3 2 2 2 2 2 2 1 1 1 1 1 2 2 2 2 2 2 1 1 0
6 5 5 6 7 8 9 10 12 12 11 10 10 10 9 8 7 6 6 5 4 4 3 3 2 2 2 2 2 2 2 1 1 1 1 2 2 2 1 1 1 1 1
7 6 5 6 7 8 9 10 11 12 12 11 11 11 10 9 8 7 6 6 5 4 4 4 2 3 3 3 2 2 1 1 1 1 1 2 2 1 1 1 2 1 1
7 7 6 6 7 8 9 10 10 11 12 12 12 12 12 10 9 8 7 7 6 5 4 4 3 3 3 2 2 2 1 1 1 1 1 1 1 1 1 1 1 1 1
8 8 7 7 7 8 9 10 11 11 12 11 13 13 12 10 9 8 8 7 6 5 5 5 4 4 3 3 2 2 2 1 1 1 1 1 1 1 1 1 1 1 1
8 8 8 9 9 9 10 11 12 12 11 12 13 13 12 11 10 9 8 8 7 6 5 5 5 5 4 4 3 2 2 2 1 2 1 1 1 1 1 1 1 1 0
9 9 9 10 10 10 10 11 12 12 12 13 14 14 14 13 11 10 9 9 8 7 6 6 5 5 5 5 4 3 3 3 2 2 2 1 1 1 1 1 1 0 0
10 10 10 11 11 12 11 11 13 13 14 14 14 15 15 14 11 11 10 9 9 8 7 7 6 6 6 6 6 5 4 4 3 3 2 2 2 2 2 1 1 1 1
11 11 11 12 12 13 12 13 14 14 15 16 15 15 16 15 13 12 11 10 10 9 8 8 7 7 6 7 7 6 5 4 4 3 3 3 3 3 2 2 1 1 1
12 11 12 13 13 13 13 14 14 15 16 16 16 16 16 16 15 14 13 11 10 10 9 9 8 7 7 7 7 7 6 5 4 4 4 4 4 3 3 2 2 1 0
13 13 13 13 14 14 14 16 16 16 17 16 17 17 17 17 17 16 14 13 12 11 11 10 9 9 8 8 8 8 8 6 6 6 6 5 5 4 4 3 3 2 1
13 13 12 12 13 14 15 16 17 16 16 16 16 17 18 18 18 17 16 15 14 12 12 11 11 10 10 9 9 9 9 8 7 6 6 6 6 6 5 5 4 3 3
13 12 12 12 13 14 15 16 17 17 17 18 18 18 19 19 19 18 17 16 15 14 13 13 12 12 11 11 10 10 10 9 8 7 7 7 7 7 6 6 5 4 4
13 13 13 13 14 15 16 17 17 17 19 19 18 17 19 20 19 19 18 18 17 16 15 14 13 13 13 12 11 11 11 10 9 9 8 7 7 7 7 7 7 6 6
12 13 13 14 14 15 15 15 17 18 19 20 19 19 20 21 20 20 19 19 18 17 16 15 14 14 14 13 12 12 12 11 11 10 9 9 8 8 8 8 8 8 8
Wind_Direction
274 172 161 162 152 151 152 150 139 136 114 89 78 78 88 100 107 107 104 101 96 94 90 84 80 78 78 82 87 91 92 88 87 88 88 89 91 94 93 90 91 89 87
19 193 179 176 169 166 167 165 166 165 164 325 346 24 92 102 107 104 101 97 94 91 88 85 78 75 78 81 86 92 95 92 91 93 91 90 90 92 93 91 89 88 86
294 211 201 192 185 179 176 177 180 185 198 251 288 274 257 175 117 110 104 99 91 87 83 80 76 73 77 80 81 88 97 96 93 93 93 92 93 93 91 89 89 88 85
228 221 215 202 190 184 186 188 190 193 200 232 255 263 261 243 212 147 116 106 92 83 78 75 73 73 76 82 82 87 96 97 96 92 94 96 96 94 90 89 89 87 86
249 229 216 205 197 194 195 195 199 198 199 216 243 254 253 246 239 222 173 129 94 68 64 69 71 72 76 87 89 92 96 96 93 91 98 101 99 94 91 92 91 89 89
270 231 215 206 204 203 205 205 205 206 208 218 235 246 252 248 250 247 239 221 262 348 14 48 57 63 73 85 88 94 99 96 91 95 102 102 103 99 94 95 94 90 90
300 239 216 208 209 209 209 212 212 210 214 220 229 241 249 251 255 255 253 263 283 305 320 359 23 45 72 87 92 101 101 102 106 103 107 110 110 108 103 99 98 92 88
315 260 224 215 215 216 218 218 217 215 218 221 226 238 246 253 256 257 259 274 286 299 306 304 343 53 104 108 110 110 109 106 119 112 116 120 118 116 112 106 106 100 94
318 282 241 229 223 220 220 221 221 222 223 222 226 237 245 252 254 255 260 273 276 288 290 285 292 243 159 146 132 128 123 118 133 125 131 129 126 121 118 111 111 108 99
316 291 253 238 229 223 221 221 221 221 221 222 227 236 244 250 251 252 259 268 271 278 275 274 272 223 194 178 154 155 150 133 142 139 134 134 134 132 126 117 117 115 106
311 287 256 241 235 229 224 223 223 220 221 224 228 233 241 246 247 251 259 265 269 271 273 271 254 215 195 181 170 177 155 154 168 143 142 148 149 145 139 131 131 130 130
306 291 262 252 243 235 231 227 224 223 222 228 233 231 238 242 244 249 254 253 254 259 261 261 244 209 195 179 168 164 135 146 165 155 156 157 161 157 153 146 142 165 190
306 295 277 259 248 241 240 232 226 224 225 231 234 232 236 240 242 247 247 246 250 249 248 249 239 211 194 182 175 178 167 154 170 159 195 187 178 173 178 193 193 214 246
304 292 284 268 250 246 245 236 229 226 228 231 233 232 235 237 240 243 244 250 254 247 243 241 237 221 208 204 193 179 166 176 191 169 207 197 197 199 206 220 217 228 233
300 293 282 268 257 251 250 238 232 229 232 232 229 229 230 234 237 238 245 248 251 250 242 243 228 221 209 201 183 183 172 173 182 183 175 199 208 210 215 225 231 227 229
300 292 281 268 262 255 247 238 232 230 229 228 228 226 228 231 232 234 239 241 243 242 240 238 228 219 210 208 209 201 188 173 168 171 170 155 167 188 200 217 222 204 235
292 288 273 264 260 256 249 241 236 232 226 226 226 225 224 222 224 228 232 233 235 237 235 228 223 214 209 202 206 203 205 218 210 196 177 169 161 166 176 193 194 192 266
284 279 265 262 260 258 250 243 233 230 225 224 223 221 218 218 220 224 227 228 233 230 226 224 221 217 209 206 211 216 221 224 220 212 194 188 173 159 163 176 182 177 31
283 280 265 258 259 257 248 240 233 232 226 224 223 220 215 214 217 220 225 228 230 229 226 226 223 220 217 215 215 215 219 229 234 218 203 198 186 172 163 162 146 112 97
286 275 267 260 259 255 245 238 234 231 226 225 224 223 217 216 218 220 224 227 225 226 226 224 225 226 225 221 218 216 219 226 231 226 218 210 197 188 188 185 153 121 94
282 274 268 262 258 252 245 238 232 230 228 225 224 224 220 217 218 219 223 224 222 222 220 220 223 222 223 220 220 222 224 226 229 226 224 219 206 198 187 181 173 163 135
280 280 268 259 257 250 242 237 231 231 227 226 225 225 222 217 217 219 221 222 221 220 220 221 223 223 224 224 226 226 226 225 222 221 219 220 217 211 203 203 206 209 221
282 279 270 260 253 246 239 236 235 233 226 227 226 224 222 220 219 219 219 220 220 220 221 223 225 224 225 229 232 230 226 224 222 219 218 216 215 217 218 219 221 226 224
280 270 269 263 251 243 239 238 235 229 226 228 227 223 221 217 216 216 219 220 221 222 224 225 227 227 228 230 233 227 223 223 220 217 217 215 216 219 220 224 225 228 232
279 271 264 259 251 241 238 237 232 226 225 227 225 222 219 215 214 217 219 219 220 221 223 225 226 228 229 231 231 226 222 219 221 222 219 218 221 225 228 231 232 235 237
277 275 265 256 248 237 236 238 231 226 226 227 225 223 221 217 216 217 219 220 221 223 225 226 226 228 230 232 229 228 227 223 224 225 224 223 225 230 233 235 238 243 248